Theta_e
295 295 294 295 297 296 296 295 294 289 291 296 297 300 302 303 304 306 309 307 307 306 306 306 306 306 307 308 310 311 312 313 315 317 318 321 324 327
296 295 295 295 295 296 296 296 295 293 291 296 297 300 301 300 303 305 306 305 306 307 307 306 305 306 306 307 308 309 310 312 313 314 316 318 320 323
296 296 295 295 294 295 295 295 294 294 291 295 297 299 299 300 301 304 305 305 306 305 306 305 305 305 305 306 307 308 309 310 312 314 314 315 317 319
295 295 294 296 295 296 295 294 294 295 294 292 296 297 297 300 302 301 301 301 303 302 303 304 305 304 304 304 305 306 307 308 310 312 314 315 316 317
295 295 295 294 294 295 295 294 294 294 295 294 295 297 298 298 298 299 300 301 300 299 301 301 301 302 303 303 304 305 306 307 308 309 311 313 315 316
296 296 296 295 296 295 294 294 294 293 294 294 295 295 296 296 297 297 296 297 298 296 296 298 300 300 301 302 303 304 305 307 309 308 310 312 315 316
294 296 297 297 298 298 295 296 295 294 292 292 293 293 293 293 289 291 290 292 290 293 293 297 298 299 300 298 299 303 305 306 308 310 312 311 313 315
290 292 296 297 297 298 299 299 297 294 293 293 293 292 288 288 290 287 288 287 286 291 289 290 296 296 297 296 299 302 302 304 306 309 312 312 313 314
292 291 292 295 297 296 297 297 297 298 299 296 293 291 286 287 287 286 286 286 287 287 287 287 292 292 292 294 298 300 301 302 302 305 311 312 313 313
292 292 292 292 294 292 291 291 291 292 293 294 294 288 288 287 288 287 286 286 286 286 289 287 289 288 290 291 294 298 298 299 300 301 304 310 313 313
291 293 293 293 295 294 288 287 287 288 293 296 296 297 297 298 292 290 286 286 285 286 287 289 286 288 289 289 290 294 296 296 296 299 300 301 303 312
290 291 297 295 295 293 287 286 285 285 286 287 287 288 290 291 294 291 290 287 286 284 288 288 288 288 288 289 289 290 292 294 295 295 297 298 297 295
288 289 291 295 295 295 294 290 287 288 288 288 287 287 287 287 287 289 290 289 287 286 290 289 287 287 288 288 288 288 288 288 291 291 293 295 296 294
288 289 291 292 293 293 291 292 291 288 287 287 286 285 285 286 287 287 288 288 289 288 289 290 288 288 288 287 286 290 288 288 288 288 290 291 292 294
289 290 290 290 290 289 291 290 289 286 285 284 284 284 285 286 287 287 288 289 289 289 289 289 290 289 289 287 287 288 287 290 288 288 289 290 289 289
288 288 288 288 289 288 287 287 286 287 285 284 284 285 286 286 285 286 286 286 286 286 288 289 289 288 287 287 287 287 288 286 289 289 289 290 291 291
287 286 286 285 285 286 286 286 286 286 285 285 285 285 285 285 285 286 285 286 284 285 285 287 288 288 288 287 286 286 286 286 288 288 288 287 289 290
286 284 284 284 284 284 284 285 286 286 286 286 286 286 285 285 285 286 286 285 284 285 285 286 286 285 285 287 288 286 286 286 287 288 287 285 286 289
284 284 284 284 284 284 284 285 284 286 286 287 287 286 286 286 286 285 286 285 285 285 285 286 285 283 282 281 286 288 285 286 286 286 287 286 285 287
284 283 283 284 284 284 284 285 285 286 285 286 286 286 286 285 285 285 286 285 285 285 285 286 285 285 283 282 283 286 287 286 286 286 286 287 288 289
284 284 284 284 284 285 285 285 285 285 285 285 285 285 285 285 285 285 285 285 285 284 283 284 285 288 287 286 283 284 287 288 288 286 286 285 285 286
284 284 285 285 285 285 285 285 285 284 284 284 285 285 285 286 285 285 285 284 284 285 285 286 287 287 286 284 283 284 285 288 289 288 289 289 286 283
284 284 285 285 286 286 286 286 285 285 284 284 284 285 286 287 287 286 286 286 286 285 285 285 287 287 286 285 285 285 285 286 287 287 288 289 290 290
Wind_Speed
7 8 7 7 8 7 7 7 8 6 10 7 5 7 6 6 7 8 8 8 8 6 4 3 3 5 6 8 11 13 14 15 17 18 18 19 18 18
5 8 8 7 7 6 9 8 8 9 10 8 7 5 7 6 7 8 8 8 9 8 7 5 5 6 9 9 12 15 17 18 19 20 21 21 21 20
3 6 8 10 7 7 7 9 8 9 10 8 6 6 6 8 6 7 7 7 5 8 8 8 8 8 9 11 13 15 18 20 22 23 23 23 23 22
5 3 4 4 7 8 5 10 9 7 8 12 7 6 9 8 8 8 6 5 5 7 9 9 10 10 12 12 14 16 19 21 23 26 26 25 24 26
3 4 4 5 5 5 7 5 4 5 7 5 5 4 5 3 4 4 4 5 4 7 9 8 10 13 14 14 14 16 19 22 24 25 28 27 27 27
5 5 6 6 7 7 6 7 7 5 4 4 4 3 4 3 2 4 4 4 5 4 5 8 9 11 15 13 13 13 16 18 23 27 26 28 29 29
6 6 6 7 11 10 7 9 9 7 6 7 7 5 4 4 4 3 4 4 4 4 3 5 4 4 5 8 10 16 16 17 20 23 26 28 29 29
7 9 7 7 7 10 9 6 13 9 11 9 8 7 5 4 4 5 4 4 4 4 3 4 3 3 3 4 14 15 14 19 20 21 24 28 30 30
8 8 7 7 7 4 8 11 6 10 17 10 10 8 3 7 5 6 7 6 4 3 4 3 3 3 1 4 12 14 13 16 21 26 20 26 28 29
9 10 8 10 9 7 6 7 7 8 5 3 2 2 3 4 8 6 7 5 1 2 4 3 2 2 1 3 10 11 15 18 19 22 22 9 20 23
15 10 10 12 19 18 9 8 8 8 12 17 15 14 11 11 13 5 4 4 3 3 4 3 3 2 2 2 4 10 12 12 19 22 22 18 16 14
12 14 22 13 19 16 8 6 7 4 6 7 7 9 10 9 12 1 3 6 3 2 4 5 4 3 3 2 2 4 5 10 12 17 24 21 22 9
10 11 11 24 22 21 14 7 7 6 8 6 7 6 6 6 5 4 3 2 2 1 4 3 3 3 3 1 1 2 4 6 5 7 14 20 19 14
11 9 11 20 21 20 14 18 14 9 6 6 6 6 5 5 4 5 6 5 5 4 3 0 2 3 3 3 3 2 2 3 4 4 4 7 12 14
9 14 17 18 17 14 19 17 14 8 7 6 6 5 4 4 4 3 4 5 7 6 3 3 1 2 2 3 2 2 3 1 2 3 4 4 3 2
11 9 12 13 15 12 11 10 7 7 6 5 5 4 4 4 5 3 3 2 3 4 5 5 1 3 2 2 3 3 2 3 3 3 4 3 2 1
8 7 8 7 9 8 8 8 7 7 7 6 5 5 5 4 4 4 3 3 3 2 2 2 3 2 1 2 3 3 3 4 3 4 4 4 4 4
8 8 8 8 9 8 8 7 8 9 6 6 5 5 5 4 4 3 3 2 2 2 3 2 3 3 2 2 1 2 2 3 3 4 4 5 5 5
8 8 8 8 8 8 7 7 7 6 6 5 6 6 6 5 5 4 4 3 2 2 2 3 2 2 3 4 1 3 2 2 3 4 4 5 6 5
7 7 8 8 8 7 7 7 6 6 6 6 6 6 6 6 6 5 4 3 3 3 3 3 2 3 3 3 3 1 4 3 2 2 3 4 5 10
8 8 7 7 7 7 7 6 7 7 6 5 5 6 6 5 5 5 5 7 5 4 4 4 4 6 2 3 4 3 3 8 7 5 4 4 3 3
8 8 8 8 8 7 7 7 6 7 7 6 6 6 6 5 6 6 5 5 4 3 3 3 3 3 2 2 4 5 4 4 5 8 10 8 2 2
8 8 7 8 7 7 7 7 7 7 7 6 6 5 5 5 4 5 5 5 5 5 5 4 4 3 3 3 4 4 5 4 3 3 3 5 8 9
Wind_Direction
219 216 216 225 212 219 242 231 235 221 229 202 202 201 198 192 203 193 200 209 224 228 213 205 253 277 279 286 290 287 284 283 283 283 276 273 273 270
204 217 218 214 223 219 231 235 237 246 245 216 212 206 197 202 210 201 201 204 230 240 242 230 243 268 285 285 283 285 286 283 277 271 270 266 266 267
275 224 223 215 214 214 222 232 246 237 245 229 237 202 199 203 202 207 197 202 216 238 255 271 279 284 284 288 283 279 280 279 276 273 268 266 264 262
231 219 261 247 228 217 203 225 228 226 226 233 213 209 213 212 208 204 200 209 221 229 244 263 281 289 289 283 279 276 274 275 273 272 270 266 263 261
262 255 233 209 227 220 217 215 233 218 215 221 218 215 210 205 194 198 211 221 230 239 251 266 280 290 292 291 285 277 273 272 269 266 264 263 260 254
331 299 260 242 241 222 222 221 214 220 222 228 218 197 210 182 214 220 217 221 237 234 244 267 276 291 298 304 294 298 295 298 271 263 256 255 256 251
340 314 293 263 254 234 227 219 215 211 208 222 223 217 207 186 200 199 232 242 256 241 255 247 255 272 301 311 310 311 321 303 299 280 253 248 248 245
1 341 335 304 304 300 307 226 221 220 221 222 224 224 206 196 192 197 200 207 238 193 207 251 228 255 307 304 321 320 327 336 327 307 263 241 239 238
21 13 7 351 10 19 45 66 59 355 228 214 220 216 173 196 174 203 212 210 206 160 201 246 219 223 308 301 322 327 327 350 355 345 292 239 230 235
22 35 30 25 35 51 64 62 42 7 46 27 246 200 220 180 195 197 193 190 111 182 202 235 174 222 256 290 310 6 15 12 3 1 358 277 225 223
14 6 50 60 59 60 52 55 45 27 18 38 38 40 32 223 194 172 174 169 196 194 190 211 176 205 220 288 320 346 356 15 17 6 13 25 48 215
20 18 31 58 68 69 65 56 48 21 39 33 30 25 24 13 27 186 189 214 170 179 186 200 170 197 210 216 331 346 339 355 18 26 12 20 40 47
22 19 21 40 47 53 68 70 71 57 41 50 50 41 29 20 12 10 39 149 148 124 174 184 182 186 250 219 246 329 337 337 350 9 19 17 38 42
30 25 30 37 36 48 46 49 51 48 46 45 44 37 29 22 17 29 41 52 50 64 13 109 211 225 224 225 235 225 322 343 340 355 4 22 26 34
26 33 33 34 36 37 39 38 35 31 33 38 32 28 19 16 49 74 79 77 70 61 56 66 151 158 239 255 256 246 290 281 340 335 346 7 28 34
25 25 29 34 40 35 31 29 29 27 32 28 23 16 13 23 34 13 16 27 60 66 52 39 354 245 242 251 269 268 281 295 315 304 303 283 280 266
22 24 23 21 24 24 26 25 21 25 26 21 20 20 22 23 29 12 18 29 52 14 26 39 43 53 121 237 253 263 280 278 285 296 288 279 258 250
31 21 18 13 16 12 11 12 18 11 8 5 9 9 9 11 15 16 11 13 3 348 326 316 300 276 238 190 308 278 277 289 285 285 275 277 268 240
28 16 14 8 4 4 2 3 1 355 339 3 3 1 358 357 355 353 356 359 3 356 3 355 337 312 282 280 164 184 297 286 292 268 256 263 273 273
18 9 5 1 1 360 357 355 353 353 356 352 355 354 354 352 356 1 358 359 355 359 357 353 337 307 288 308 309 282 220 276 289 296 277 270 271 276
7 6 2 0 357 355 353 351 349 352 353 349 358 360 2 354 4 10 9 13 15 352 352 356 341 338 299 261 263 278 272 224 262 282 290 274 279 275
4 3 1 359 358 357 353 352 354 359 359 4 6 8 9 8 19 19 16 18 17 1 350 338 335 332 325 308 312 306 297 298 271 266 267 268 304 273
1 1 359 0 1 358 356 357 5 4 5 6 7 10 14 10 4 27 29 29 25 21 6 3 350 337 333 314 318 313 298 312 306 292 242 247 277 293